Location: Antichan
(42.9728°N, 0.6667°E)
Time: 17:56:23
(UTC+00:00)

Resurs 01 Rocket - Pass Details

Date: 15 August 2020
Orbit: 635 x 644 km, 98.0° (Epoch: 19 September)

Event Time Altitude Azimuth Distance (km) Brightness Sun altitude
Exits shadow 20:34:55 20° 170° (S) 1,489 3.1 -16.2°
Maximum altitude 20:38:00 82° 256° (WSW) 652 1.6 -16.7°
Drops below altitude 10° 20:42:28 10° 345° (NNW) 2,043 5.0 -17.3°
Sets 20:44:41 0° 347° (NNW) 2,959 5.9 -17.6°
